Weather History for Boonville, MO

Change the Weather History Date:

Wednesday, December 11, 2013

  Actual Average Record
Temperature  
Mean Temperature 20 °F -  
Max Temperature 28 °F 44 °F 68 °F (1965)
Min Temperature 10 °F 24 °F 3 °F (1962)
Degree Days  
Heating Degree Days 46    
Moisture  
Dew Point 9 °F    
Average Humidity 58    
Maximum Humidity 77    
Minimum Humidity 32    
Precipitation  
Precipitation 0.00 in - - ()
Sea Level Pressure  
Sea Level Pressure 30.49 in    
Wind  
Wind Speed 6 mph (NW)    
Max Wind Speed 16 mph    
Max Gust Speed 22 mph    
Visibility 10 miles    
Events      
Averages and records for this station are not official NWS values.
T = Trace of Precipitation, MM = Missing Value Source: NWS Daily Summary

Daily Weather History Graph

Daily Weather History Graph

Search for Another Location

Airport:

Trip Planner

Search our weather history database for the weather conditions in past years. The results will help you decide how hot, cold, wet, or windy it might be!

Date:

Astronomy

Dec. 11, 2013 Rise Set
Actual Time 7:19 AM CST 4:48 PM CST
Civil Twilight 6:49 AM CST 5:18 PM CST
Nautical Twilight 6:16 AM CST 5:52 PM CST
Astronomical Twilight 5:43 AM CST 6:24 PM CST
Moon 1:20 PM CST (12/11) 1:43 AM CST (12/11)
Length of Visible Light 10h 28m
Length of Day
9h 29m
Waxing Gibbous, 72% of the Moon is Illuminated
Dec 11
Waxing Gibbous
Dec 17
Full
Dec 25
Last Quarter
Jan 1
New
Jan 7
First Quarter

Hourly Weather History & Observations

Time (CST) Temp. Windchill Dew Point Humidity Pressure Visibility Wind Dir Wind Speed Gust Speed Precip Events Conditions
12:15 AM 22.5 °F 15.1 °F 13.3 °F 68% 30.27 in 10.0 mi South 5.8 mph - N/A   Clear
12:35 AM 21.4 °F 13.8 °F 13.3 °F 71% 30.26 in 10.0 mi South 5.8 mph - N/A   Clear
12:55 AM 21.7 °F 13.2 °F 14.2 °F 73% 30.26 in 10.0 mi South 6.9 mph - N/A   Clear
1:15 AM 22.5 °F 17.8 °F 14.5 °F 72% 30.26 in 10.0 mi SSW 3.5 mph - N/A   Clear
1:35 AM 23.7 °F 17.8 °F 14.5 °F 68% 30.25 in 10.0 mi South 4.6 mph - N/A   Clear
1:55 AM 23.7 °F 17.8 °F 14.9 °F 69% 30.27 in 10.0 mi SSW 4.6 mph - N/A   Clear
2:15 AM 24.1 °F 18.2 °F 14.7 °F 68% 30.27 in 10.0 mi SSW 4.6 mph - N/A   Clear
2:35 AM 23.5 °F 19.1 °F 14.5 °F 69% 30.28 in 10.0 mi SSW 3.5 mph - N/A   Clear
2:55 AM 23.5 °F 19.1 °F 14.2 °F 67% 30.28 in 10.0 mi South 3.5 mph - N/A   Clear
3:15 AM 23.2 °F 18.7 °F 14.0 °F 68% 30.29 in 10.0 mi SSW 3.5 mph - N/A   Clear
3:35 AM 23.4 °F - 14.0 °F 67% 30.29 in 10.0 mi Calm Calm - N/A   Clear
3:55 AM 23.5 °F - 14.0 °F 67% 30.29 in 10.0 mi Calm Calm - N/A   Clear
4:15 AM 23.7 °F 19.3 °F 14.0 °F 66% 30.29 in 10.0 mi SW 3.5 mph - N/A   Clear
4:35 AM 22.5 °F 17.8 °F 14.0 °F 70% 30.30 in 10.0 mi SW 3.5 mph - N/A   Clear
4:55 AM 22.1 °F - 14.0 °F 71% 30.31 in 10.0 mi Calm Calm - N/A   Clear
5:15 AM 22.8 °F 15.5 °F 14.4 °F 70% 30.32 in 10.0 mi WSW 5.8 mph - N/A   Clear
5:35 AM 23.2 °F 17.2 °F 14.7 °F 70% 30.32 in 10.0 mi West 4.6 mph - N/A   Clear
5:55 AM 24.3 °F 18.4 °F 15.6 °F 70% 30.34 in 10.0 mi West 4.6 mph - N/A   Clear
6:15 AM 24.6 °F 15.8 °F 16.2 °F 70% 30.36 in 10.0 mi WNW 8.1 mph - N/A   Clear
6:35 AM 24.3 °F 17.3 °F 16.5 °F 72% 30.36 in 10.0 mi West 5.8 mph - N/A   Clear
6:55 AM 24.8 °F 16.9 °F 17.1 °F 72% 30.38 in 10.0 mi WNW 6.9 mph - N/A   Clear
7:15 AM 24.6 °F 15.1 °F 17.4 °F 74% 30.40 in 10.0 mi WNW 9.2 mph - N/A   Clear
7:35 AM 24.4 °F 14.9 °F 17.8 °F 76% 30.42 in 10.0 mi NW 9.2 mph - N/A   Scattered Clouds
7:55 AM 25.2 °F 16.5 °F 18.9 °F 77% 30.44 in 10.0 mi NW 8.1 mph - N/A   Mostly Cloudy
8:15 AM 26.4 °F 19.8 °F 19.6 °F 75% 30.46 in 10.0 mi NW 5.8 mph - N/A   Mostly Cloudy
8:35 AM 27.0 °F 19.5 °F 20.1 °F 75% 30.48 in 10.0 mi NW 6.9 mph - N/A   Scattered Clouds
8:55 AM 27.5 °F 18.0 °F 20.3 °F 74% 30.48 in 10.0 mi NW 10.4 mph - N/A   Clear
9:15 AM 28.8 °F 17.5 °F 18.9 °F 67% 30.50 in 10.0 mi NNW 15.0 mph 21.9 mph N/A   Clear
9:35 AM 28.9 °F 17.3 °F 16.7 °F 60% 30.51 in 10.0 mi NNW 16.1 mph 21.9 mph N/A   Clear
9:55 AM 28.0 °F 18.1 °F 16.2 °F 61% 30.53 in 10.0 mi NNW 11.5 mph 18.4 mph N/A   Clear
10:15 AM 28.2 °F 17.2 °F 16.0 °F 60% 30.54 in 10.0 mi NNW 13.8 mph 20.7 mph N/A   Clear
10:35 AM 27.9 °F 18.4 °F 15.3 °F 59% 30.55 in 10.0 mi NNW 10.4 mph 18.4 mph N/A   Scattered Clouds
10:55 AM 28.2 °F 18.3 °F 14.2 °F 56% 30.56 in 10.0 mi NNW 11.5 mph 18.4 mph N/A   Clear
11:15 AM 28.2 °F 18.9 °F 13.8 °F 55% 30.56 in 10.0 mi NNW 10.4 mph 18.4 mph N/A   Scattered Clouds
11:35 AM 28.2 °F 17.7 °F 13.5 °F 54% 30.56 in 10.0 mi NW 12.7 mph - N/A   Scattered Clouds
11:55 AM 27.7 °F 17.6 °F 12.2 °F 52% 30.55 in 10.0 mi NW 11.5 mph 18.4 mph N/A   Clear
12:15 PM 28.0 °F 18.6 °F 10.6 °F 48% 30.56 in 10.0 mi North 10.4 mph 16.1 mph N/A   Clear
12:35 PM 28.4 °F 18.5 °F 10.8 °F 48% 30.56 in 10.0 mi NW 11.5 mph 17.3 mph N/A   Clear
12:55 PM 28.0 °F 18.1 °F 8.6 °F 44% 30.56 in 10.0 mi NNW 11.5 mph 18.4 mph N/A   Clear
1:15 PM 28.0 °F 18.6 °F 7.3 °F 42% 30.56 in 10.0 mi NW 10.4 mph 17.3 mph N/A   Clear
1:35 PM 28.4 °F 20.4 °F 7.5 °F 41% 30.55 in 10.0 mi NNW 8.1 mph - N/A   Clear
1:55 PM 28.6 °F 19.3 °F 9.0 °F 44% 30.55 in 10.0 mi North 10.4 mph - N/A   Clear
2:15 PM 28.6 °F 18.7 °F 9.3 °F 44% 30.55 in 10.0 mi NNW 11.5 mph - N/A   Clear
2:35 PM 28.0 °F 18.6 °F 7.3 °F 42% 30.56 in 10.0 mi NNW 10.4 mph - N/A   Clear
2:55 PM 27.5 °F 17.4 °F 5.7 °F 40% 30.56 in 10.0 mi NW 11.5 mph 17.3 mph N/A   Clear
3:15 PM 27.0 °F 17.3 °F 3.0 °F 36% 30.56 in 10.0 mi WNW 10.4 mph - N/A   Clear
3:35 PM 26.2 °F 17.1 °F 0.1 °F 32% 30.57 in 10.0 mi NNW 9.2 mph - N/A   Clear
3:55 PM 25.5 °F 16.9 °F -0.0 °F 33% 30.57 in 10.0 mi NNW 8.1 mph - N/A   Clear
4:15 PM 24.8 °F 16.9 °F 1.6 °F 37% 30.58 in 10.0 mi NW 6.9 mph - N/A   Clear
4:35 PM 23.5 °F 14.5 °F 1.9 °F 39% 30.58 in 10.0 mi NW 8.1 mph - N/A   Clear
4:55 PM 22.3 °F 13.9 °F 1.0 °F 40% 30.58 in 10.0 mi NW 6.9 mph - N/A   Clear
5:15 PM 20.8 °F 12.1 °F 0.3 °F 41% 30.60 in 10.0 mi NW 6.9 mph - N/A   Clear
5:35 PM 19.8 °F 10.8 °F 0.7 °F 43% 30.60 in 10.0 mi NNW 6.9 mph - N/A   Clear
5:55 PM 19.4 °F 9.5 °F 1.2 °F 45% 30.61 in 10.0 mi NNW 8.1 mph - N/A   Clear
6:15 PM 18.9 °F 9.8 °F 1.0 °F 46% 30.61 in 10.0 mi NNW 6.9 mph - N/A   Clear
6:35 PM 18.1 °F 8.9 °F 1.0 °F 47% 30.62 in 10.0 mi NNW 6.9 mph - N/A   Clear
6:55 PM 17.4 °F 7.1 °F 1.0 °F 49% 30.62 in 10.0 mi NNW 8.1 mph - N/A   Clear
7:15 PM 16.5 °F 6.0 °F 1.0 °F 51% 30.63 in 10.0 mi NNW 8.1 mph - N/A   Clear
7:35 PM 15.8 °F 8.6 °F 1.0 °F 52% 30.63 in 10.0 mi NNW 4.6 mph - N/A   Clear
7:55 PM 15.1 °F - 1.8 °F 56% 30.64 in 10.0 mi Calm Calm - N/A   Clear
8:15 PM 15.3 °F - 1.9 °F 56% 30.64 in 10.0 mi Calm Calm - N/A   Clear
8:35 PM 14.9 °F - 1.6 °F 56% 30.64 in 10.0 mi Calm Calm - N/A   Clear
8:55 PM 14.4 °F - 1.6 °F 57% 30.64 in 10.0 mi Calm Calm - N/A   Clear
9:15 PM 13.8 °F - 1.0 °F 57% 30.64 in 10.0 mi Calm Calm - N/A   Clear
9:35 PM 13.8 °F - 0.1 °F 55% 30.64 in 10.0 mi Calm Calm - N/A   Clear
9:55 PM 12.6 °F - 1.9 °F 63% 30.64 in 10.0 mi Calm Calm - N/A   Clear
10:15 PM 12.0 °F - 2.5 °F 66% 30.64 in 10.0 mi Calm Calm - N/A   Clear
10:35 PM 12.6 °F - 0.9 °F 60% 30.63 in 10.0 mi Calm Calm - N/A   Clear
10:55 PM 12.0 °F - 1.2 °F 62% 30.63 in 10.0 mi Calm Calm - N/A   Clear
11:15 PM 11.5 °F - 1.8 °F 65% 30.63 in 10.0 mi Calm Calm - N/A   Clear
11:35 PM 11.5 °F 5.3 °F 2.1 °F 66% 30.62 in 10.0 mi SE 3.5 mph - N/A   Clear
11:55 PM 10.2 °F 2.0 °F 2.1 °F 70% 30.61 in 10.0 mi SE 4.6 mph - N/A   Clear